Location: Steilacoom
(47.1700°N, 122.5700°W)
Time: 19:25:29
(UTC-08:00)

ISS - Pass Details

Date: 21 November 2019
Orbit: 411 x 421 km, 51.6° (Epoch: 06 December)

Event Time Altitude Azimuth Distance (km) Brightness Sun altitude
Rises 17:55:53 0° 192° (SSW) 2,342 0.4 -14.5°
Reaches altitude 10° 17:58:48 10° 164° (SSE) 1,488 -1.0 -15.0°
Enters shadow 18:00:14 13° 138° (SE) 1,314 -1.5 -15.2°
